Location: M?digepalle
(16.1753°N, 80.3496°E)
Time: 14:19:23
(UTC+00:00)

Daily predictions for brighter satellites

Satellite Brightness Start Highest point End
(mag) Time Altitude Azimuth Time Altitude Azimuth Time Altitude Azimuth
Cosmos 1553 Rocket 4.1 12:20:35 10° S 12:26:54 66° E 12:33:10 10° NNE
Cosmos 1992 Rocket 4.0 12:24:59 10° SSW 12:30:11 89° ESE 12:35:24 10° NNE
CCE 1 Rocket 4.1 12:27:20 10° NW 12:31:22 54° NNE 12:37:36 10° ESE
Cosmos 1825 Rocket 3.8 12:27:04 10° N 12:31:27 76° W 12:35:47 10° S
CZ-4 R/B 3.2 12:33:14 10° E 12:33:52 10° ENE 12:34:30 10° ENE
Hubble Space Telescope 1.5 12:36:10 10° WNW 12:40:12 53° SSW 12:44:13 10° SE
H-2A R/B 2.7 12:38:11 10° NW 12:40:22 31° NNE 12:46:31 10° E
Cosmos 2297 Rocket 3.2 12:36:45 10° NNE 12:41:12 24° ENE 12:45:37 10° ESE
CZ-4B R/B 4.3 12:39:38 10° NW 12:41:36 16° WNW 12:43:33 10° WSW
FengYun 1-2 T 4.2 12:37:04 10° SSE 12:42:41 71° ENE 12:48:18 10° N
Aureole 3 Rocket 4.2 12:40:15 10° SSW 12:43:17 38° W 12:47:01 10° NNW
Meteor 2-10 Rocket 3.6 12:38:13 10° S 12:43:43 78° E 12:48:59 10° N
Cosmos 2360 4.4 12:39:57 10° SSW 12:45:39 79° WNW 12:51:23 10° NNE
ARIANE 5 R/B 3.9 12:39:24 10° WSW 12:47:39 25° SSW 12:50:26 10° SE
Cosmos 1315 Rocket 2.7 12:46:51 10° S 12:50:44 79° E 12:54:41 10° N
Cosmos 1340 2.8 12:47:09 10° N 12:50:47 47° E 12:54:24 10° SSE
IUS-14 SRM-1 3.9 12:40:09 10° WSW 12:52:42 67° NNW 12:55:25 15° ENE
IUS-26 SRM-1 4.4 12:49:03 10° WNW 12:53:24 20° NNW 12:55:26 11° NNE
H-2A R/B 3.7 12:54:38 14° ENE 12:54:38 14° ENE 12:56:47 10° NE
SWIFT 3.2 12:50:17 10° W 12:54:24 47° SSW 12:58:31 10° SE
Cosmos 2058 3.9 12:51:53 10° NNE 12:55:11 23° E 12:58:29 10° SE
Cosmos 2278 3.7 12:50:33 10° SSW 12:56:15 87° ESE 13:01:56 10° NNE
Cosmos 2322 Rocket 4.0 12:54:46 10° ESE 12:55:46 11° ESE 12:55:46 11° ESE
Cosmos 1346 Rocket 3.9 12:53:16 10° NNE 12:56:26 23° E 12:59:36 10° SE
GPS 2-14 Rocket1 3.0 12:52:54 10° W 12:57:02 67° SSW 13:00:31 14° ESE
Geosat 4.1 12:56:54 10° NNE 13:01:54 79° WNW 13:06:55 10° SSW
SL-08 R/B 4.4 12:58:29 10° N 13:04:31 65° E 13:10:32 10° SSE
Okean-O 3.2 13:00:37 10° SE 13:04:35 34° ENE 13:08:34 10° NNE
Cosmos 1455 2.5 13:01:18 10° SSW 13:05:01 67° W 13:08:45 10° N
Fermi 4.2 13:04:49 10° W 13:08:47 50° NNW 13:10:59 24° NE
USA 281 3.5 13:03:04 10° SSE 13:09:34 71° WSW 13:16:07 10° NNW
Cosmos 1745 Rocket 4.2 13:04:43 10° N 13:10:49 49° E 13:16:55 10° SSE
Feng Yun 1-1 Rocket 4.5 13:07:01 10° S 13:12:49 82° WSW 13:18:44 10° NNW
Cosmos 2219 3.2 13:08:52 10° N 13:14:31 58° ENE 13:20:07 10° SSE
ASC 2 Rocket 3.6 13:13:44 10° WNW 13:17:46 45° NNE 13:19:43 30° ENE
Delta 7925 Rocket 3.9 13:11:05 10° WSW 13:17:53 71° NNW 13:20:55 27° ENE
MOS 1 Rocket 3.4 13:14:08 10° NNE 13:19:09 84° ESE 13:24:26 10° S
IRS-1C Rocket 4.2 13:19:36 10° S 13:24:50 76° WSW 13:30:06 10° NNW
CZ-2C R/B 2.4 13:21:41 10° SSW 13:25:21 28° SE 13:25:39 28° SE
CSL-04 Rocket 4.5 13:23:13 10° SE 13:29:15 31° NE 13:33:02 10° NNE
CZ-2C R/B 3.1 13:29:00 35° E 13:29:07 35° E 13:33:54 10° SSE
Cosmos 968 Rocket 3.3 13:27:46 10° N 13:32:53 65° ENE 13:37:56 10° SSE
SL-16 R/B 2.6 13:28:00 10° S 13:33:13 39° ESE 13:33:32 39° E
Orbus 7S 3.9 13:32:25 10° W 13:34:53 36° N 13:35:04 36° N
ATLAS 2AS CENTAUR RB 2.6 13:35:01 10° SW 13:35:48 18° SSW 13:35:48 18° SSW
Cosmos 1709 Rocket 4.2 13:34:17 10° NNE 13:40:23 46° E 13:46:24 10° SSE
Cosmos 1408 3.0 13:40:38 10° NNW 13:44:14 61° W 13:47:53 10° S
Cosmos 2227 Rocket 2.1 13:40:03 10° NNW 13:45:42 88° ENE 13:51:22 10° SSE
CZ-3A R/B 2.0 13:41:18 10° WSW 13:46:41 58° NW 13:46:41 58° NW
Cosmos 2315 Rocket 4.1 13:40:52 10° S 13:47:04 75° W 13:53:14 10° N
OAO 3 Rocket 4.1 13:44:04 10° NW 13:47:33 35° N 13:47:33 35° N
CZ-3B R/B 4.2 13:43:08 10° WNW 13:50:05 36° NNW 13:50:33 35° N
Cosmos 1076 Rocket 3.5 13:47:08 10° N 13:51:22 79° W 13:55:38 10° S
Cosmos-2242 3.5 13:49:17 10° SSW 13:53:26 56° W 13:55:08 32° NNW
YAOGAN 1 3.1 13:53:25 10° S 13:57:39 57° W 14:01:54 10° NNW
Cosmos 192 4.3 13:54:40 10° SSW 13:59:32 81° W 13:59:32 81° W
EO 1 Delta rocket 4.3 13:58:37 29° N 14:00:52 61° W 14:05:50 10° SSW
Milstar 3 3.6 13:56:08 10° NW 14:02:12 34° N 14:02:38 34° NNE
FALCON 9 R/B 3.5 13:59:55 10° WSW 14:00:27 16° WSW 14:00:27 16° WSW
Atlas Centaur 2 4.0 13:56:18 10° NW 14:03:31 30° N 14:04:53 29° NNE
CZ-4 R/B 3.3 14:05:10 10° SSW 14:08:34 27° W 14:11:55 10° NW
Intelsat 5-2 Rocket 4.2 14:00:48 10° W 14:08:42 43° NNW 14:08:42 43° NNW
CSL-04 Debris 4.3 14:05:30 10° S 14:11:29 68° NW 14:16:19 10° NNW
CZ-2C R/B 4.1 14:05:55 10° S 14:11:32 51° W 14:17:07 10° NNW
Cosmos 2297 Rocket 4.1 14:20:22 10° NW 14:25:01 27° WSW 14:29:39 10° SSW
H-2A R/B 3.7 14:28:00 10° S 14:35:17 28° NW 14:38:09 10° NNW
Centaur AC-72 3.8 13:44:56 10° W 14:34:43 80° N 14:36:15 69° ENE
Cosmos 2322 Rocket 3.6 14:34:24 10° SSW 14:37:40 33° SW 14:37:40 33° SW
Centaur D-1AR AC-48 4.0 21:42:02 39° NE 21:42:02 39° NE 21:52:04 10° E
ARIANE 5 R/B 4.2 21:54:06 29° SSE 21:54:47 29° SSE 22:10:50 10° E
ATLAS CENTAUR R/B 3.9 22:16:21 19° E 22:16:21 19° E 22:18:45 10° ENE
ALOS 4.3 22:20:46 10° NE 22:24:38 26° E 22:28:30 10° SSE
X-37B 4.1 22:30:14 11° ESE 22:30:14 11° ESE 22:30:40 10° E
Nadezhda 4 Rocket 4.3 22:24:57 10° S 22:32:49 50° N 22:37:11 10° N
Meteor 1-16 Rocket 4.1 22:37:44 77° NE 22:37:56 79° E 22:43:23 10° S
CZ-3 R/B 4.0 22:29:28 38° WNW 22:41:54 57° NNW 22:52:07 10° ENE
Delta 128 3.9 22:45:16 59° ENE 22:45:16 59° ENE 22:49:08 10° ESE
Cosmos 1697 Rocket 4.4 22:45:44 10° N 22:50:40 31° ENE 22:55:36 10° SE
Cosmos 2180 Rocket 4.3 22:50:10 20° NNW 22:54:35 73° W 23:00:40 10° S
FENGYUN 3A 3.8 22:52:19 10° NNE 22:57:44 76° ESE 23:03:09 10° S
ADEOS 3.5 22:54:30 10° NNE 22:59:44 86° ESE 23:04:57 10° SSW
Cosmos 1484 Rocket 2.8 22:56:13 10° NNE 22:59:57 73° E 23:03:39 10° S
Meteor 2-5 Rocket 3.7 22:54:44 10° SSW 23:00:11 55° W 23:05:47 10° N
H-2A R/B 2.1 22:59:00 10° SSE 23:03:30 86° ENE 23:06:11 24° N
Landsat 5 3.2 23:01:10 10° S 23:05:09 71° WSW 23:05:09 71° WSW
ERS-2 4.3 23:02:47 10° SE 23:05:50 26° ENE 23:08:54 10° NNE
GPS 2-15 Rocket1 3.3 23:05:20 48° SW 23:06:37 71° SSE 23:11:31 10° E
Sakura Rocket 4.5 23:02:27 29° WSW 23:07:44 87° NNW 23:14:42 10° ENE
BREEZE-M DEB (TANK) 3.0 23:07:34 29° SSW 23:09:05 63° ESE 23:16:59 10° NE
Stardust Del rocket 3.8 23:11:25 31° NE 23:11:25 31° NE 23:13:16 10° ENE
Cosmos 614 Rocket 3.8 23:06:00 10° SSW 23:11:07 65° WNW 23:16:13 10° N
Cosmos 1980 Rocket 4.4 23:09:51 10° NNE 23:14:16 24° ENE 23:18:41 10° ESE
SL-19 R/B 3.6 23:21:30 10° N 23:24:31 77° WNW 23:27:55 10° SSW
Meteor 1-31 Rocket 2.6 23:21:30 10° N 23:25:23 67° WNW 23:29:15 10° SSW
ADEOS Rocket 2.8 23:20:23 10° S 23:25:52 55° WSW 23:31:13 10° NNW
GPS 2-17 Rocket1 3.2 23:24:40 33° W 23:26:25 57° SSW 23:30:55 10° ESE
CZ-2C R/B 1.2 23:26:42 37° SW 23:27:00 38° SW 23:30:01 10° SE
Cosmos 2026 Rocket 4.0 23:21:18 10° SSW 23:27:35 69° W 23:33:55 10° N
SL-27 R/B 3.2 23:25:08 10° S 23:28:36 54° E 23:32:06 10° NNE
deb Chang Zheng 4 3.9 23:30:06 10° N 23:34:06 40° WNW 23:38:06 10° SW
Palapa 6 Rocket 3.8 23:32:53 23° NW 23:34:19 30° N 23:37:55 10° ENE
Intercosmos 24 3.8 23:30:58 10° N 23:34:36 71° W 23:39:10 10° S
Okean 1-7 Rocket 3.7 23:30:50 10° SSW 23:35:18 56° W 23:39:45 10° N
Cosmos 1023 Rocket 4.3 23:30:12 10° SSW 23:35:18 76° WNW 23:40:22 10° N
Cosmos 1892 Rocket 4.2 23:32:53 10° SSW 23:36:45 32° W 23:40:39 10° NNW
Cosmos 2360 4.5 23:32:53 10° NNW 23:38:33 73° ENE 23:44:11 10° SSE
Cosmos 44 Rocket 3.9 23:42:09 13° NW 23:46:27 40° WSW 23:51:15 10° S
Cosmos 2058 Rocket 3.6 23:42:38 10° N 23:47:02 62° E 23:51:23 10° SSE
Cosmos 2278 4.4 23:42:53 10° N 23:48:26 58° ENE 23:53:57 10° SSE
Cosmos 1190 Rocket 4.1 23:44:08 10° SSW 23:49:16 55° WNW 23:54:23 10° N
CZ-4B R/B 3.0 23:45:38 10° N 23:49:52 63° WNW 23:54:15 10° SSW
ATLAS CENTAUR R/B 2.8 23:52:45 14° W 23:54:28 17° WNW 23:57:09 10° NNW
ASTRO F (AKARI) 4.2 23:51:37 10° N 23:54:51 65° WNW 23:57:57 10° SSW
